Regional Weather Roundup
Issued by NWS Little Rock, AR

Home | Current Version | Previous Version | Graphics & Text | Print | Product List | Glossary On
Versions: 1 2 3 4 5 6 7 8 9 10 11 12 13 14 15 16 17 18 19 20 21 22 23 24 25 26 27 28 29 30 31 32 33 34 35 36 37 38 39 40 41 42 43 44 45 46 47 48
000
ASUS44 KLZK 291105
RWRLZK

WEATHER ROUNDUP FOR ARKANSAS
NATIONAL WEATHER SERVICE LITTLE ROCK AR
500 AM CST THU JAN 29 2015

NOTE: "FAIR" INDICATES FEW OR NO CLOUDS BELOW 12,000 FEET WITH NO
SIGNIFICANT WEATHER AND/OR OBSTRUCTIONS TO VISIBILITY.

ARZ001-003-010-029-291200-
NORTHWEST ARKANSAS

CITY           SKY/WX    TMP DP  RH WIND       PRES   REMARKS
FAYETTEVILLE   PTCLDY    52  36  54 NW8       30.05R
FORT SMITH     CLEAR     48  41  76 W10       30.03R
HARRISON       CLEAR     55  37  50 W8        29.99R
BENTONVILLE    CLEAR     52  34  50 N9        30.06R
ROGERS         CLEAR     52  36  54 NW9       30.05R
SILOAM SPGS    PTCLDY    52  32  46 NW10G16   30.07R
HIGHFILL       PTCLDY    52  35  52 N14G24    30.04R
$$

ARZ004-005-016-291200-
NORTH CENTRAL ARKANSAS

CITY           SKY/WX    TMP DP  RH WIND       PRES   REMARKS
BATESVILLE     MOCLDY    54  43  66 W13       29.96R
FLIPPIN        PTCLDY    61  37  41 W8        29.96R
MTN HOME       PTCLDY    58  39  49 NW7       29.95R
$$

ARZ040-041-291200-
WEST CENTRAL ARKANSAS

CITY           SKY/WX    TMP DP  RH WIND       PRES   REMARKS
MENA           CLEAR     61  45  55 SW6       30.05S
MOUNT IDA      PTCLDY    59  43  55 VRB3      30.01R
$$

ARZ009-017-025-026-028-291200-
NORTHEAST ARKANSAS

CITY           SKY/WX    TMP DP  RH WIND       PRES   REMARKS
CORNING        FAIR      52  43  71 SW14G21   29.92S
JONESBORO      CLOUDY    52  43  71 SW16      29.96R
NEWPORT        CLOUDY    54  43  66 SW13      29.98R
WALNUT RIDGE   PTCLDY    52  39  62 SW16      29.92F
BLYTHEVILLE    CLOUDY    54  41  61 SW21G31   29.96R
$$

ARZ022-023-033-042-044-291200-
CENTRAL ARKANSAS

CITY           SKY/WX    TMP DP  RH WIND       PRES   REMARKS
LITTLE ROCK    PTCLDY    56  41  57 SW14G22   30.01S
N LITTLE ROCK    N/A     56  46  70 SW12G17   30.01S
JACKSONVILLE   PTCLDY    57  44  60 SW14      30.00S
SEARCY         MOCLDY    55  43  63 SW7       30.01R
HOT SPRINGS    PTCLDY    53  44  71 NW3       30.04S
RUSSELLVILLE   PTCLDY    41  38  89 CALM      29.99R
CLINTON        FAIR      37  36  93 CALM      30.01R
$$

ARZ036-291200-
EAST ARKANSAS

CITY           SKY/WX    TMP DP  RH WIND       PRES   REMARKS
WEST MEMPHIS   CLOUDY    55  42  61 S15G23    30.00S
$$

ARZ050-053-066-070-073-291200-
SOUTHWEST ARKANSAS

CITY           SKY/WX    TMP DP  RH WIND       PRES   REMARKS
ARKADELPHIA    FAIR      45  44  96 CALM      30.06F
CAMDEN         MOCLDY    54  43  66 MISG      30.06F
TEXARKANA      PTCLDY    53  46  77 SW5       30.07S
EL DORADO      CLEAR     52  47  83 S8        30.09R
DE QUEEN       PTCLDY    41  40  96 CALM      30.06R FOG
$$

ARZ056-057-069-291200-
SOUTHEAST ARKANSAS

CITY           SKY/WX    TMP DP  RH WIND       PRES   REMARKS
PINE BLUFF     PTCLDY    55  43  63 SW13      30.05R
STUTTGART      MOCLDY    55  43  62 SW14      30.02F
MONTICELLO     MOCLDY    56  45  66 SW9       30.08R

$$





USA.gov is the U.S. government's official web portal to all federal, state and local government web resources and services.